Tracking 22124 objects as of 23-Jan-2021
HD Live streaming from Space Station
objects crossing your sky now

STARLINK-1757

Track STARLINK-1757 now!
10-day predictions
STARLINK-1757 is classified as:


NORAD ID: 46339
Int'l Code: 2020-062Q
Perigee: 573.1 km
Apogee: 580.6 km
Inclination: 53.1 °
Period: 96.1 minutes
Semi major axis: 6947 km
RCS: Unknown
Launch date: September 3, 2020
Source: United States (US)
Launch site: AIR FORCE EASTERN TEST RANGE (AFETR)
aabbcc
Your satellite tracking list
Your tracking list is empty




NASA's NSSDC Master Catalog

Two Line Element Set (TLE):
1 46339U 20062Q   21023.00001157 -.00006535  00000-0 -51145-3 0  9997
2 46339  53.0963 115.2859 0005379 333.9162 185.1234 14.99088592  1768
Source of the keplerian elements: AFSPC